Find Starlink 38397

NORAD ID: 100514 Int'l Des: 2026-197 Owner: SPXS Country: US Constellation: starlink operational

Aktuelle Ansicht

3D-Globus wird geladen...

About Starlink 38397

Starlink 38397 (NORAD 100514) is a starlink constellation satellite launched Aug 25, 2026 by SPXS of US. with a mass of 575.00 kg.

Nächste Überflüge

Passes for default location (London). Set your location on the main map for personalized predictions.

Höhenverlauf

Loading altitude history...

Zweizeiliger Elementsatz

1 A0514U 26197N 26248.27039864 .00173757 00000-0 82755-3 0 9996
2 A0514 69.9964 165.1192 0003704 271.0582 89.0196 15.82223548 1586
Epoch: 5. Sept. 2026 • Age: 9 hours

Aktueller Status

Höhe 341.8 km
Apogäum / Perigäum N/A
Geschwindigkeit 7.70 km/s
Subsatellitenpunkt -53.49°S, 80.15°W
Startdatum 25. Aug. 2026
Alter 11 days
Typ internet

Technische Details

Klassifizierung Payload
Masse 575.00 kg
Trockenmasse 530.00 kg
Gesamtmasse 575.00 kg
Länge 0.30 m
Durchmesser 4.10 m
Spannweite 29.00 m
Form Box + pan
Hersteller SPXS
Bus-Typ Starlink V2MO
Phasenstatus In Orbit
Besitzer/Staat SPXS/US

Most Searched